Weather History for KALK - October, 2012

Change the Weather History Date:

Tuesday, October 30, 2012

  Actual Average (KTUS) Record (KTUS)
Temperature  
Mean Temperature 65 °F 66 °F  
Max Temperature 79 °F 80 °F 94 °F (2001)
Min Temperature 51 °F 52 °F 26 °F (1971)
Degree Days  
Heating Degree Days 0 2  
Month to date heating degree days 21  
Since 1 July heating degree days 21  
Cooling Degree Days 0 3  
Month to date cooling degree days 208  
Year to date cooling degree days 3115  
Growing Degree Days 15 (Base 50)    
Moisture  
Dew Point 26 °F    
Average Humidity 25    
Maximum Humidity 45    
Minimum Humidity 10    
Precipitation  
Precipitation 0.00 in 0.03 in 1.47 in (1951)
Month to date precipitation 0.87  
Year to date precipitation 10.07  
Sea Level Pressure  
Sea Level Pressure 29.97 in    
Wind  
Wind Speed 6 mph (SW)    
Max Wind Speed 13 mph    
Max Gust Speed 68 mph    
T = Trace of Precipitation, MM = Missing Value Source: NWS Daily Summary

Daily Weather History Graph

Daily Weather History Graph

Search for Another Location

Airport or City:

Trip Planner

Search our weather history database for the weather conditions in past years. The results will help you decide how hot, cold, wet, or windy it might be!

Date:

Astronomy

Oct. 30, 2012 Rise Set
Actual Time 6:36 AM MST 5:33 PM MST
Civil Twilight 6:11 AM MST 5:58 PM MST
Nautical Twilight 5:42 AM MST 6:27 PM MST
Astronomical Twilight 5:14 AM MST 6:55 PM MST
Moon 6:10 PM MST (10/30) 7:21 AM MST (10/30)
Length of Visible Light 11h 47m
Length of Day
10h 57m
Full, 99% of the Moon is Illuminated
Oct 30
Full
Nov 6
Last Quarter
Nov 13
New
Nov 20
First Quarter
Nov 28
Full

Hourly Weather History & Observations

Time (MST) Temp. Dew Point Humidity Pressure Visibility Wind Dir Wind Speed Gust Speed Precip Events Conditions
12:56 AM 57.9 °F 28.0 °F 32% 29.98 in - SW 6.9 mph - N/A   Clear
1:56 AM 51.1 °F 28.9 °F 43% 29.99 in - SW 4.6 mph - N/A   Clear
2:56 AM 51.1 °F 30.0 °F 44% 29.98 in - SSW 3.5 mph - N/A   Clear
3:56 AM 55.0 °F 30.0 °F 38% 29.97 in - Calm Calm - N/A   Clear
5:56 AM 52.0 °F 30.9 °F 45% 30.00 in - South 4.6 mph - N/A   Clear
6:56 AM 55.0 °F 30.0 °F 38% 30.01 in - South 3.5 mph - N/A   Clear
7:56 AM 57.0 °F 33.1 °F 40% 30.04 in - Calm Calm - N/A   Clear
8:56 AM 69.1 °F 28.0 °F 22% 30.02 in - NE 4.6 mph - N/A   Clear
9:56 AM 73.0 °F 28.0 °F 19% 30.01 in - East 5.8 mph - N/A   Clear
10:56 AM 75.0 °F 28.9 °F 18% 29.99 in - Variable 5.8 mph - N/A   Clear
11:56 AM 75.9 °F 27.0 °F 16% 29.96 in - West 3.5 mph - N/A   Clear
12:56 PM 78.1 °F 26.1 °F 15% 29.92 in - Variable 3.5 mph - N/A   Clear
1:56 PM 79.0 °F 18.0 °F 10% 29.91 in - WSW 10.4 mph 17.3 mph N/A   Clear
1:58 PM - - N/A% - - North - - N/A   Unknown
2:56 PM 79.0 °F 18.0 °F 10% 29.90 in - West 9.2 mph - N/A   Clear
3:56 PM 78.1 °F 18.0 °F 10% 29.89 in - West 12.7 mph 18.4 mph N/A   Clear
4:56 PM 75.0 °F 24.1 °F 15% 29.90 in - NW 10.4 mph - N/A   Clear
5:56 PM 66.9 °F 21.9 °F 18% 29.93 in - West 8.1 mph - N/A   Clear
6:56 PM 64.0 °F 21.9 °F 20% 29.94 in - North - - N/A   Clear
7:22 PM 62.6 °F 23.0 °F 22% 30.15 in - SW 11.5 mph 67.9 mph N/A   Squalls
7:56 PM 62.1 °F 24.1 °F 23% 29.95 in - WSW 10.4 mph 29.9 mph N/A   Clear
8:56 PM 59.0 °F 24.1 °F 26% 29.95 in - North - - N/A   Clear
9:56 PM 60.1 °F 25.0 °F 26% 29.94 in - SW 9.2 mph - N/A   Unknown
10:56 PM 60.1 °F 25.0 °F 26% 29.93 in - SW 9.2 mph - N/A   Clear
11:56 PM 59.0 °F 26.1 °F 28% 29.94 in - SW 9.2 mph - N/A   Clear